This demonstration page uses our WeatherBlox Daily Observations layout. Learn more.

38.89511, -77.03637

Hourly Observations for September 14, 2018

Temp ( °F °C ) Dew Point ( °F °C ) Humidity (%) Winds ( mph kmh ) Pressure ( in mb ) Visibility ( mi km ) Precip ( " mm )
12:42 am 00:42 Cloudy 75 23.9 70 21.1 84 84 NE 12 19 30.15 1021 10 16.0934 0 0
12:52 am 00:52 Cloudy 75 23.9 70 21.1 84 84 NE 10 17 30.14 1021 10 16.0934 0 0
1:52 am 01:52 Cloudy 74 23.3 70 21.1 88 88 NE 13 20 30.14 1021 10 16.0934 0 0
2:46 am 02:46 Cloudy 73 23 70 21 89 89 NE 12 19 30.15 1021 10 16.0934 0 0
2:52 am 02:52 Cloudy 73 22.8 70 21.1 90 90 NE 10 17 30.14 1021 9 14.48406 0 0
3:36 am 03:36 Cloudy 73 22.8 70 21.1 90 90 NE 15 24 30.15 1021 9 14.48406 0 0
3:52 am 03:52 Cloudy with Light Drizzle 73 22.8 70 21.1 90 90 ENE 14 22 30.15 1021 8 12.87472 0 0.0254
3:59 am 03:59 Cloudy with Light Drizzle 73 22.8 70 21.1 90 90 NE 8 13 30.15 1021 7 11.26538 0 0.0254
4:12 am 04:12 Cloudy with Light Drizzle 73 22.8 70 21.1 90 90 NE 14 22 30.15 1021 5 8.0467 0 0.0254
4:52 am 04:52 Cloudy with Light Drizzle 72 22.2 70 21.1 94 94 NNE 9 15 30.14 1021 4 6.43736 0 0.0254
5:52 am 05:52 Cloudy 73 22.8 69 20.6 87 87 NE 13 20 30.13 1020 10 16.0934 0 0.0254
6:52 am 06:52 Cloudy 73 22.8 69 20.6 87 87 NNE 15 24 30.14 1021 10 16.0934 0 0
7:52 am 07:52 Cloudy 73 22.8 69 20.6 87 87 NE 16 26 30.14 1021 10 16.0934 0 0
8:52 am 08:52 Cloudy 73 22.8 69 20.6 87 87 NE 15 24 30.14 1021 10 16.0934 0 0
9:50 am 09:50 Cloudy 73 23 70 21 89 89 NE 14 22 30.15 1021 10 16.0934 0 0
9:52 am 09:52 Cloudy 73 22.8 69 20.6 87 87 NE 16 26 30.16 1021 10 16.0934 0 0
10:52 am 10:52 Cloudy with Light Rain 73 22.8 69 20.6 87 87 NE 17 28 30.16 1021 10 16.0934 0 0.0254
11:52 am 11:52 Cloudy 75 23.9 69 20.6 82 82 NE 16 26 30.14 1021 10 16.0934 0 0.0254
12:31 pm 12:31 Cloudy 75 23.9 69 20.6 82 82 NE 15 24 30.15 1021 10 16.0934 0 0
12:52 pm 12:52 Cloudy 75 23.9 69 20.6 82 82 NE 16 26 30.15 1021 10 16.0934 0 0
1:52 pm 13:52 Cloudy with Haze 75 23.9 70 21.1 84 84 NE 20 31 30.14 1021 6 9.65604 0 0
2:40 pm 14:40 Cloudy 77 25 70 21.1 79 79 ENE 17 28 30.12 1020 10 16.0934 0 0
2:52 pm 14:52 Cloudy 76 24.4 70 21.1 82 82 NE 14 22 30.12 1020 10 16.0934 0 0
3:41 pm 15:41 Cloudy with Light Rain 75 23.9 71 21.7 88 88 NE 14 22 30.12 1020 7 11.26538 0 0.0254
3:52 pm 15:52 Cloudy with Light Drizzle 75 23.9 71 21.7 88 88 NE 13 20 30.11 1020 9 14.48406 0 0.0254
4:52 pm 16:52 Mostly Cloudy 78 25.6 71 21.7 79 79 NE 13 20 30.11 1020 10 16.0934 0 0.0254
5:35 pm 17:35 Cloudy 77 25 70 21.1 79 79 NE 10 17 30.12 1020 10 16.0934 0 0
5:52 pm 17:52 Cloudy 77 25 70 21.1 79 79 NE 10 17 30.11 1020 10 16.0934 0 0
6:29 pm 18:29 Cloudy 77 25 70 21.1 79 79 NE 14 22 30.12 1020 10 16.0934 0 0
6:52 pm 18:52 Cloudy 76 24.4 70 21.1 82 82 ENE 14 22 30.11 1020 10 16.0934 0 0
7:06 pm 19:06 Cloudy 77 25 69 20.6 77 77 ENE 18 30 30.12 1020 10 16.0934 0 0
7:52 pm 19:52 Cloudy 76 24.4 70 21.1 82 82 NE 10 17 30.12 1020 10 16.0934 0 0
8:42 pm 20:42 Cloudy 75 23.9 70 21.1 84 84 ENE 13 20 30.15 1021 10 16.0934 0 0
8:52 pm 20:52 Cloudy 75 23.9 69 20.6 82 82 ENE 15 24 30.14 1021 10 16.0934 0 0
9:52 pm 21:52 Cloudy 75 23.9 69 20.6 82 82 ENE 13 20 30.15 1021 10 16.0934 0 0
10:01 pm 22:01 Cloudy 75 23.9 69 20.6 82 82 ENE 12 19 30.15 1021 10 16.0934 0 0
10:14 pm 22:14 Cloudy 74 23.3 69 20.6 85 85 ENE 13 20 30.15 1021 10 16.0934 0 0
10:52 pm 22:52 Cloudy 74 23.3 69 20.6 85 85 ENE 8 13 30.15 1021 10 16.0934 0 0
11:07 pm 23:07 Cloudy 74 23.3 69 20.6 85 85 NE 9 15 30.15 1021 10 16.0934 0 0
11:32 pm 23:32 Cloudy 74 23.3 69 20.6 85 85 ENE 10 17 30.15 1021 10 16.0934 0 0
11:52 pm 23:52 Cloudy 74 23.3 69 20.6 85 85 NE 10 17 30.15 1021 10 16.0934 0 0

Powered by AerisWeather